When you browse on this site, cookies collect data to enhance your experience and personalize the content and advertising you see.
Visit our Privacy Policy to learn more. By continuing to use the site, you agree to this use of cookies and data.
  • In Schweiz
  • Länderverzeichnis
  • Für 7 Tage
  • Wassertemperatur
  • Wetterkarte
  • Widgets
  • user-avatar
    Anmelden

    Stündliche Wetter Dsershinsk

    Heute, 25 Februar, Dienstag

    Zeit Temperatur Niederschläge Wind Luftdruck Luftfeuchtigkeit
    00:00 -1°C° 0.5 mm 7 m/S 728 mmHg 96%
    01:00 -3°C° 1.1 mm 9 m/S 729 mmHg 96%
    02:00 -3°C° 1.1 mm 10 m/S 730 mmHg 96%
    03:00 -5°C° 1.1 mm 12 m/S 731 mmHg 96%
    04:00 -4°C° 0.5 mm 11 m/S 732 mmHg 93%
    05:00 -3°C° 0.5 mm 11 m/S 734 mmHg 89%
    06:00 -3°C° 0.5 mm 10 m/S 735 mmHg 85%
    07:00 -3°C° 0 mm 10 m/S 736 mmHg 85%
    08:00 -3°C° 0 mm 9 m/S 738 mmHg 84%
    09:00 -3°C° 0 mm 9 m/S 739 mmHg 83%
    10:00 -3°C° 0 mm 9 m/S 740 mmHg 80%
    11:00 -1°C° 0 mm 8 m/S 741 mmHg 77%
    12:00 -1°C° 0 mm 8 m/S 742 mmHg 73%
    13:00 0°C° 0 mm 7 m/S 742 mmHg 69%
    14:00 0°C° 0 mm 7 m/S 742 mmHg 65%
    15:00 +2°C° 0 mm 6 m/S 743 mmHg 61%
    16:00 +1°C° 0 mm 5 m/S 743 mmHg 64%
    17:00 +1°C° 0 mm 4 m/S 743 mmHg 68%
    18:00 +1°C° 0 mm 3 m/S 743 mmHg 71%
    19:00 +1°C° 0 mm 3 m/S 744 mmHg 72%
    20:00 0°C° 0 mm 3 m/S 744 mmHg 74%
    21:00 0°C° 0 mm 3 m/S 744 mmHg 75%
    22:00 0°C° 0 mm 3 m/S 744 mmHg 75%
    23:00 -1°C° 0 mm 4 m/S 744 mmHg 76%

    Morgen, 26 Februar, Mittwoch

    Zeit Temperatur Niederschläge Wind Luftdruck Luftfeuchtigkeit
    00:00 -1°C° 0 mm 4 m/S 743 mmHg 76%
    01:00 -1°C° 0 mm 4 m/S 743 mmHg 79%
    02:00 -1°C° 0 mm 4 m/S 743 mmHg 81%
    03:00 -1°C° 0 mm 4 m/S 743 mmHg 84%
    04:00 -1°C° 0 mm 5 m/S 742 mmHg 84%
    05:00 -1°C° 0 mm 5 m/S 742 mmHg 85%
    06:00 0°C° 0 mm 5 m/S 742 mmHg 85%
    07:00 -1°C° 0 mm 6 m/S 742 mmHg 84%
    08:00 -1°C° 0 mm 6 m/S 741 mmHg 83%
    09:00 0°C° 0 mm 7 m/S 741 mmHg 82%
    10:00 +2°C° 0 mm 7 m/S 741 mmHg 76%
    11:00 +4°C° 0 mm 8 m/S 741 mmHg 69%
    12:00 +5°C° 0 mm 8 m/S 740 mmHg 63%
    13:00 +5°C° 0 mm 8 m/S 740 mmHg 62%
    14:00 +6°C° 0 mm 8 m/S 740 mmHg 60%
    15:00 +6°C° 0 mm 9 m/S 739 mmHg 59%
    16:00 +5°C° 0 mm 8 m/S 739 mmHg 62%
    17:00 +5°C° 0 mm 8 m/S 738 mmHg 65%
    18:00 +4°C° 0 mm 8 m/S 738 mmHg 67%
    19:00 +2°C° 0 mm 8 m/S 738 mmHg 70%
    20:00 +2°C° 0 mm 8 m/S 738 mmHg 73%
    21:00 +2°C° 0 mm 8 m/S 738 mmHg 76%
    22:00 +2°C° 0 mm 8 m/S 738 mmHg 76%
    23:00 +2°C° 0 mm 8 m/S 738 mmHg 76%

    übermorgen, 27 Februar, Donnerstag

    Zeit Temperatur Niederschläge Wind Luftdruck Luftfeuchtigkeit
    00:00 +1°C° 0 mm 8 m/S 737 mmHg 76%
    01:00 +2°C° 0 mm 7 m/S 737 mmHg 76%
    02:00 +2°C° 0 mm 7 m/S 737 mmHg 76%
    03:00 +2°C° 0 mm 6 m/S 736 mmHg 77%
    04:00 +2°C° 0 mm 6 m/S 736 mmHg 77%
    05:00 +3°C° 0 mm 6 m/S 736 mmHg 78%
    06:00 +3°C° 0 mm 6 m/S 735 mmHg 79%
    07:00 +3°C° 0 mm 6 m/S 735 mmHg 79%
    08:00 +4°C° 0 mm 7 m/S 735 mmHg 78%
    09:00 +5°C° 0 mm 7 m/S 735 mmHg 77%
    10:00 +6°C° 0 mm 7 m/S 735 mmHg 75%
    11:00 +7°C° 0 mm 8 m/S 735 mmHg 72%
    12:00 +10°C° 0 mm 8 m/S 735 mmHg 69%
    13:00 +10°C° 0 mm 8 m/S 734 mmHg 68%
    14:00 +11°C° 0 mm 8 m/S 734 mmHg 68%
    15:00 +12°C° 0 mm 8 m/S 734 mmHg 67%
    16:00 +11°C° 0 mm 7 m/S 734 mmHg 71%
    17:00 +10°C° 0 mm 7 m/S 734 mmHg 76%
    18:00 +10°C° 0 mm 6 m/S 734 mmHg 80%
    19:00 +9°C° 0 mm 6 m/S 734 mmHg 80%
    20:00 +9°C° 0 mm 7 m/S 734 mmHg 81%
    21:00 +9°C° 0 mm 7 m/S 734 mmHg 81%
    22:00 +9°C° 0.2 mm 7 m/S 734 mmHg 83%
    23:00 +8°C° 0.2 mm 6 m/S 734 mmHg 84%

    28 Februar, Freitag

    Zeit Temperatur Niederschläge Wind Luftdruck Luftfeuchtigkeit
    00:00 +8°C° 0.2 mm 6 m/S 734 mmHg 85%
    01:00 +8°C° 0.2 mm 6 m/S 733 mmHg 83%
    02:00 +8°C° 0.2 mm 6 m/S 733 mmHg 82%
    03:00 +6°C° 0.2 mm 7 m/S 733 mmHg 80%
    04:00 +6°C° 0.4 mm 7 m/S 732 mmHg 83%
    05:00 +6°C° 0.4 mm 7 m/S 731 mmHg 86%
    06:00 +6°C° 0.4 mm 7 m/S 731 mmHg 89%
    07:00 +5°C° 0.3 mm 7 m/S 731 mmHg 86%
    08:00 +5°C° 0.3 mm 7 m/S 731 mmHg 82%
    09:00 +5°C° 0.3 mm 7 m/S 731 mmHg 79%
    10:00 +4°C° 0.1 mm 7 m/S 731 mmHg 80%
    11:00 +4°C° 0.1 mm 7 m/S 732 mmHg 81%
    12:00 +3°C° 0.1 mm 7 m/S 732 mmHg 81%
    13:00 +1°C° 0.1 mm 8 m/S 734 mmHg 79%
    14:00 +1°C° 0.1 mm 9 m/S 735 mmHg 76%
    15:00 +1°C° 0.1 mm 10 m/S 736 mmHg 74%
    16:00 +1°C° 0 mm 8 m/S 737 mmHg 72%
    17:00 +2°C° 0 mm 6 m/S 739 mmHg 70%
    18:00 +2°C° 0 mm 5 m/S 740 mmHg 68%
    19:00 +1°C° 0 mm 4 m/S 741 mmHg 70%
    20:00 +1°C° 0 mm 4 m/S 741 mmHg 73%
    21:00 +1°C° 0 mm 3 m/S 742 mmHg 75%
    22:00 +1°C° 0 mm 3 m/S 742 mmHg 76%
    23:00 +1°C° 0 mm 2 m/S 742 mmHg 77%

    29 Februar, Samstag

    Zeit Temperatur Niederschläge Wind Luftdruck Luftfeuchtigkeit
    00:00 +1°C° 0 mm 2 m/S 742 mmHg 78%
    01:00 +1°C° 0 mm 2 m/S 742 mmHg 77%
    02:00 +1°C° 0 mm 2 m/S 742 mmHg 76%
    03:00 0°C° 0 mm 3 m/S 741 mmHg 75%
    04:00 0°C° 0 mm 3 m/S 741 mmHg 75%
    05:00 0°C° 0 mm 3 m/S 741 mmHg 75%
    06:00 0°C° 0 mm 3 m/S 741 mmHg 75%
    07:00 0°C° 0 mm 4 m/S 741 mmHg 78%
    08:00 0°C° 0 mm 4 m/S 740 mmHg 82%
    09:00 +1°C° 0 mm 4 m/S 740 mmHg 85%
    10:00 +1°C° 0.4 mm 5 m/S 740 mmHg 88%
    11:00 +1°C° 0.4 mm 5 m/S 739 mmHg 91%
    12:00 +1°C° 0.4 mm 5 m/S 739 mmHg 93%
    13:00 +1°C° 0.7 mm 6 m/S 738 mmHg 94%
    14:00 +1°C° 0.7 mm 6 m/S 738 mmHg 95%
    15:00 0°C° 0.7 mm 7 m/S 737 mmHg 96%
    16:00 0°C° 0.9 mm 7 m/S 737 mmHg 96%
    17:00 0°C° 0.9 mm 7 m/S 737 mmHg 96%
    18:00 0°C° 0.9 mm 7 m/S 736 mmHg 96%
    19:00 0°C° 0.6 mm 7 m/S 736 mmHg 96%
    20:00 -1°C° 0.6 mm 7 m/S 737 mmHg 96%
    21:00 -1°C° 0.6 mm 7 m/S 737 mmHg 95%
    22:00 -1°C° 0.4 mm 7 m/S 737 mmHg 95%
    23:00 -2°C° 0.4 mm 8 m/S 737 mmHg 96%

    1 März, Sonntag

    Zeit Temperatur Niederschläge Wind Luftdruck Luftfeuchtigkeit
    00:00 -3°C° 0.4 mm 9 m/S 737 mmHg 96%
    01:00 -3°C° 0.6 mm 9 m/S 738 mmHg 94%
    02:00 -3°C° 0.6 mm 9 m/S 738 mmHg 92%
    03:00 -3°C° 0.6 mm 10 m/S 739 mmHg 90%
    04:00 -4°C° 0 mm 10 m/S 739 mmHg 87%
    05:00 -4°C° 0 mm 9 m/S 740 mmHg 84%
    06:00 -4°C° 0 mm 9 m/S 741 mmHg 82%
    07:00 -4°C° 0 mm 9 m/S 742 mmHg 80%
    08:00 -4°C° 0 mm 8 m/S 742 mmHg 78%
    09:00 -4°C° 0 mm 8 m/S 743 mmHg 76%
    10:00 -2°C° 0 mm 8 m/S 744 mmHg 70%
    11:00 -1°C° 0 mm 7 m/S 744 mmHg 64%
    12:00 +2°C° 0 mm 7 m/S 745 mmHg 57%
    13:00 +2°C° 0 mm 7 m/S 745 mmHg 55%
    14:00 +3°C° 0 mm 6 m/S 745 mmHg 54%
    15:00 +3°C° 0 mm 6 m/S 745 mmHg 52%
    16:00 +3°C° 0 mm 5 m/S 745 mmHg 55%
    17:00 +3°C° 0 mm 3 m/S 745 mmHg 59%
    18:00 +4°C° 0 mm 2 m/S 745 mmHg 63%
    19:00 +3°C° 0 mm 2 m/S 745 mmHg 65%
    20:00 +3°C° 0 mm 2 m/S 745 mmHg 67%
    21:00 +2°C° 0 mm 2 m/S 745 mmHg 69%
    22:00 +2°C° 0 mm 3 m/S 745 mmHg 73%
    23:00 +2°C° 0 mm 3 m/S 745 mmHg 77%
    Mehr zeigen